| time (UTC) | temp F | wind direction | speed knots | gust knots | rain 1hr in | rain 24hr in | rain mn in | humidity % | barometer mb |
| 20260504060106 | 57 | 250 | 3.5 | 10.4 | 0.00 | 0.00 | 0.00 | 69 | 1005.6 |
| 20260504050014 | 57 | 219 | 5.2 | 9.6 | 0.00 | 0.00 | 0.00 | 69 | 1006.0 |
| 20260504044555 | 58 | 215 | 5.2 | 8.7 | 0.00 | 0.00 | 0.00 | 68 | 1006.1 |
| 20260504043101 | 58 | 215 | 4.3 | 8.7 | 0.00 | 0.00 | 0.00 | 69 | 1006.2 |
| 20260504041535 | 58 | 186 | 5.2 | 10.4 | 0.00 | 0.00 | 0.00 | 68 | 1006.1 |
| 20260504040034 | 59 | 203 | 6.1 | 11.3 | 0.00 | 0.00 | 0.00 | 66 | 1006.1 |
| 20260504034514 | 59 | 208 | 7.8 | 12.2 | 0.00 | 0.00 | 0.00 | 66 | 1006.1 |
| 20260504033011 | 59 | 234 | 5.2 | 12.2 | 0.00 | 0.00 | 0.00 | 66 | 1006.3 |
| 20260504031552 | 60 | 217 | 6.1 | 11.3 | 0.00 | 0.00 | 0.00 | 64 | 1006.3 |
| 20260504030049 | 61 | 184 | 6.1 | 13.0 | 0.00 | 0.00 | 0.00 | 62 | 1006.3 |
| 20260504024529 | 61 | 188 | 7.0 | 13.0 | 0.00 | 0.00 | 0.00 | 62 | 1006.2 |
| 20260504023028 | 61 | 200 | 6.1 | 11.3 | 0.00 | 0.00 | 0.00 | 61 | 1006.3 |
| 20260504021507 | 61 | 184 | 5.2 | 11.3 | 0.00 | 0.00 | 0.00 | 60 | 1006.3 |
| 20260504020005 | 62 | 196 | 6.1 | 10.4 | 0.00 | 0.00 | 0.00 | 59 | 1006.2 |
| 20260504014551 | 62 | 193 | 4.3 | 10.4 | 0.00 | 0.00 | 0.00 | 58 | 1006.2 |
| 20260504013043 | 63 | 223 | 5.2 | 7.8 | 0.00 | 0.00 | 0.00 | 57 | 1006.1 |
| 20260504011542 | 64 | 196 | 4.3 | 8.7 | 0.00 | 0.00 | 0.00 | 54 | 1006.1 |
| 20260504010037 | 65 | 210 | 6.1 | 12.2 | 0.00 | 0.00 | 0.00 | 52 | 1006.0 |
| 20260504004536 | 66 | 210 | 6.1 | 12.2 | 0.00 | 0.00 | 0.00 | 50 | 1006.0 |
| 20260504003035 | 67 | 213 | 4.3 | 13.0 | 0.00 | 0.00 | 0.00 | 47 | 1006.0 |
| 20260504001536 | 68 | 231 | 4.3 | 13.0 | 0.00 | 0.00 | 0.00 | 46 | 1006.0 |
| 20260504000037 | 68 | 211 | 8.7 | 20.0 | 0.00 | 0.00 | 0.00 | 45 | 1006.0 |
| 20260503234519 | 68 | 271 | 7.8 | 15.6 | 0.00 | 0.00 | 0.00 | 45 | 1006.3 |
| 20260503233014 | 69 | 196 | 7.0 | 19.1 | 0.00 | 0.00 | 0.00 | 45 | 1006.2 |
| 20260503231602 | 69 | 230 | 6.1 | 17.4 | 0.00 | 0.00 | 0.00 | 45 | 1006.2 |
| 20260503230108 | 69 | 211 | 8.7 | 19.1 | 0.00 | 0.00 | 0.00 | 43 | 1006.3 |
| 20260503224537 | 69 | 223 | 7.8 | 20.0 | 0.00 | 0.00 | 0.00 | 44 | 1006.3 |
| 20260503223036 | 68 | 240 | 11.3 | 21.7 | 0.00 | 0.00 | 0.00 | 44 | 1006.5 |
| 20260503221516 | 68 | 228 | 9.6 | 19.1 | 0.00 | 0.00 | 0.00 | 44 | 1006.6 |
| 20260503220016 | 69 | 253 | 10.4 | 20.9 | 0.00 | 0.00 | 0.00 | 43 | 1006.7 |
| 20260503214557 | 69 | 203 | 11.3 | 24.3 | 0.00 | 0.00 | 0.00 | 43 | 1006.6 |
| 20260503213103 | 69 | 254 | 10.4 | 20.9 | 0.00 | 0.00 | 0.00 | 41 | 1006.6 |
| 20260503211549 | 69 | 213 | 13.0 | 26.1 | 0.00 | 0.00 | 0.00 | 41 | 1006.7 |
| 20260503210036 | 68 | 227 | 11.3 | 24.3 | 0.00 | 0.00 | 0.00 | 41 | 1006.9 |
| 20260503204517 | 68 | 242 | 13.0 | 20.9 | 0.00 | 0.00 | 0.00 | 41 | 1007.1 |
| 20260503203014 | 68 | 241 | 10.4 | 21.7 | 0.00 | 0.00 | 0.00 | 40 | 1007.3 |
| 20260503201601 | 68 | 223 | 13.9 | 25.2 | 0.00 | 0.00 | 0.00 | 39 | 1007.5 |
| 20260503200106 | 68 | 227 | 14.8 | 22.6 | 0.00 | 0.00 | 0.00 | 39 | 1007.9 |
| 20260503194601 | 67 | 172 | 12.2 | 27.8 | 0.00 | 0.00 | 0.00 | 41 | 1008.2 |
| 20260503193057 | 65 | 211 | 12.2 | 22.6 | 0.00 | 0.00 | 0.00 | 43 | 1008.6 |
| 20260503191549 | 65 | 205 | 15.6 | 27.8 | 0.00 | 0.00 | 0.00 | 41 | 1008.8 |
| 20260503190048 | 65 | 185 | 15.6 | 28.7 | 0.00 | 0.00 | 0.00 | 39 | 1009.1 |
| 20260503184552 | 65 | 203 | 13.9 | 25.2 | 0.00 | 0.00 | 0.00 | 39 | 1009.0 |
| 20260503183043 | 64 | 209 | 16.5 | 29.5 | 0.00 | 0.00 | 0.00 | 41 | 1009.0 |
| 20260503181519 | 63 | 197 | 13.9 | 27.8 | 0.00 | 0.00 | 0.00 | 43 | 1009.2 |
| 20260503180028 | 63 | 167 | 13.9 | 25.2 | 0.00 | 0.00 | 0.00 | 44 | 1009.8 |
| 20260503174614 | 62 | 180 | 13.0 | 23.5 | 0.00 | 0.00 | 0.00 | 47 | 1010.4 |
| 20260503173101 | 60 | 207 | 11.3 | 23.5 | 0.00 | 0.00 | 0.00 | 50 | 1011.0 |
| 20260503171548 | 58 | 176 | 7.8 | 19.1 | 0.00 | 0.00 | 0.00 | 56 | 1011.4 |
| 20260503081538 | 44 | 208 | 6.1 | 12.2 | 0.00 | 0.00 | 0.00 | 67 | 1015.4 |
| 20260503071546 | 45 | 180 | 4.3 | 9.6 | 0.00 | 0.00 | 0.00 | 65 | 1015.5 |